Location: Sauerland
(51.1981°N, 7.8053°E)
Time: 16:13:39
(UTC+01:00)

ISS - Pass Details

Date: 20 February 2026
Orbit: 416 x 427 km, 51.6° (Epoch: 5 March)

Event Time Altitude Azimuth Distance (km) Brightness Sun altitude
Exits shadow 04:57:50 31° 106° (ESE) 762 -2.0 -24.8°
Drops below altitude 10° 04:59:56 10° 82° (E) 1,496 0.1 -24.5°
Sets 05:02:05 0° 75° (ENE) 2,360 1.5 -24.1°
